Pocatello, ID

4:46 PM MST on February 27, 2017 (GMT -0700)
Pocatello Regional

Weather History for KPIH - January, 2013

Change the Weather History Date:

Saturday, January 5, 2013

  Actual Average Record
Temperature  
Mean Temperature 5 °F 24 °F  
Max Temperature 18 °F 32 °F 55 °F (2012)
Min Temperature -9 °F 16 °F -19 °F (1979)
Degree Days  
Heating Degree Days 60 41  
Month to date heating degree days 316 205  
Since 1 July heating degree days 2873 3190  
Cooling Degree Days 0 0  
Month to date cooling degree days 0 0  
Year to date cooling degree days 0 0  
Moisture  
Dew Point -5 °F    
Average Humidity 74    
Maximum Humidity 91    
Minimum Humidity 56    
Precipitation  
Precipitation 0.00 in 0.04 in 0.64 in (1940)
Month to date precipitation T 0.19  
Year to date precipitation T 0.19  
Snow  
Snow 0.00 in - - ()
Month to date snowfall T  
Since 1 July snowfall 19.6  
Snow Depth 5.00 in    
Sea Level Pressure  
Sea Level Pressure 30.55 in    
Wind  
Wind Speed 5 mph (NE)    
Max Wind Speed 13 mph    
Max Gust Speed 15 mph    
Visibility 6 miles    
Events Fog    
T = Trace of Precipitation, MM = Missing Value Source: NWS Daily Summary

Daily Weather History Graph

Daily Weather History Graph

Search for Another Location

Airport or City:

Trip Planner

Search our weather history database for the weather conditions in past years. The results will help you decide how hot, cold, wet, or windy it might be!

Date:

Astronomy

Jan. 05, 2013 Rise Set
Actual Time 8:01 AM MST 5:10 PM MST
Civil Twilight 7:29 AM MST 5:42 PM MST
Nautical Twilight 6:53 AM MST 6:18 PM MST
Astronomical Twilight 6:19 AM MST 6:52 PM MST
Moon 1:07 AM MST (1/5) 12:07 PM MST (1/5)
Length of Visible Light 10h 13m
Length of Day
9h 09m
Last Quarter, 43% of the Moon is Illuminated
Jan 5
Last Quarter
Jan 11
New
Jan 18
First Quarter
Jan 26
Full
Feb 3
Last Quarter

Hourly Weather History & Observations

Time (MST) Temp. Windchill Dew Point Humidity Pressure Visibility Wind Dir Wind Speed Gust Speed Precip Events Conditions
12:30 AM -5.8 °F - -9.4 °F 84% 30.37 in 2.0 mi Calm Calm - N/A   Partly Cloudy
12:32 AM -7.6 °F - -9.4 °F 92% 30.37 in 1.0 mi Calm Calm - N/A   Mist
12:39 AM -7.6 °F -16.5 °F -9.4 °F 92% 30.37 in 0.5 mi West 3.5 mph - N/A Fog Light Freezing Fog
12:47 AM -5.8 °F -14.5 °F -9.4 °F 84% 30.37 in 2.0 mi West 3.5 mph - N/A   Mostly Cloudy
12:53 AM -6.0 °F - -9.0 °F 87% 30.64 in 2.5 mi Calm Calm - N/A   Scattered Clouds
1:05 AM -5.8 °F -14.5 °F -7.6 °F 92% 30.37 in 3.0 mi South 3.5 mph - N/A   Partly Cloudy
1:53 AM -7.1 °F -21.4 °F -9.9 °F 87% 30.64 in 5.0 mi North 6.9 mph - N/A   Scattered Clouds
2:02 AM -5.8 °F -21.2 °F -9.4 °F 84% 30.38 in 2.5 mi NNE 8.1 mph - N/A   Mostly Cloudy
2:08 AM -5.8 °F - -7.6 °F 92% 30.38 in 0.8 mi Calm Calm - N/A   Mist
2:53 AM -7.1 °F - -11.0 °F 83% 30.64 in 1.0 mi Calm Calm - N/A   Mist
2:59 AM -5.8 °F -14.5 °F -9.4 °F 84% 30.39 in 3.0 mi WSW 3.5 mph - N/A   Mostly Cloudy
3:08 AM -5.8 °F - -9.4 °F 84% 30.39 in 4.0 mi Calm Calm - N/A   Scattered Clouds
3:15 AM -7.6 °F - -11.2 °F 84% 30.39 in 1.8 mi Calm Calm - N/A   Scattered Clouds
3:30 AM -9.4 °F -24.3 °F -13.0 °F 84% 30.39 in 3.0 mi NNE 6.9 mph - N/A   Clear
3:53 AM -9.0 °F - -13.0 °F 83% 30.66 in 6.0 mi Calm Calm - N/A   Scattered Clouds
4:53 AM -7.1 °F - -11.9 °F 79% 30.69 in 3.0 mi Calm Calm - N/A   Haze
5:02 AM -7.6 °F - -13.0 °F 77% 30.39 in 4.0 mi Calm Calm - N/A   Haze
5:53 AM -7.6 °F -23.4 °F -11.2 °F 84% 30.41 in 7.0 mi NNE 8.1 mph - N/A   Clear
6:01 AM -5.8 °F -16.7 °F -11.2 °F 77% 30.41 in 8.0 mi NE 4.6 mph - N/A   Scattered Clouds
6:53 AM -0.9 °F -16.4 °F -6.0 °F 79% 30.71 in 8.0 mi ENE 9.2 mph - N/A   Clear
7:53 AM -7.1 °F -21.4 °F -11.9 °F 79% 30.74 in 8.0 mi West 6.9 mph - N/A   Clear
8:53 AM -2.9 °F -11.2 °F -8.0 °F 79% 30.74 in 7.0 mi NE 3.5 mph - N/A   Clear
9:53 AM -0.9 °F - -2.9 °F 91% 30.73 in 5.0 mi Calm Calm - N/A   Clear
10:53 AM 3.9 °F - 1.9 °F 91% 30.73 in 7.0 mi Calm Calm - N/A   Clear
11:53 AM 10.0 °F -2.9 °F 1.9 °F 70% 30.70 in 10.0 mi NE 9.2 mph - N/A   Clear
12:53 PM 15.1 °F 4.2 °F 3.9 °F 61% 30.65 in 10.0 mi ENE 8.1 mph - N/A   Clear
1:53 PM 17.1 °F 8.7 °F 5.0 °F 59% 30.62 in 10.0 mi NE 5.8 mph - N/A   Clear
2:53 PM 18.0 °F 7.7 °F 7.0 °F 62% 30.61 in 9.0 mi NE 8.1 mph - N/A   Clear
3:53 PM 17.1 °F 6.6 °F 6.1 °F 62% 30.61 in 10.0 mi NE 8.1 mph - N/A   Clear
4:53 PM 14.0 °F 2.9 °F 5.0 °F 67% 30.59 in 10.0 mi East 8.1 mph - N/A   Clear
5:53 PM 12.9 °F 0.7 °F 5.0 °F 71% 30.59 in 10.0 mi East 9.2 mph - N/A   Clear
6:53 PM 8.1 °F -0.5 °F 1.9 °F 76% 30.57 in 10.0 mi East 4.6 mph - N/A   Clear
7:53 PM 3.9 °F - -0.0 °F 84% 30.60 in 10.0 mi Calm Calm - N/A   Clear
8:53 PM 5.0 °F -4.1 °F -0.9 °F 76% 30.57 in 10.0 mi East 4.6 mph - N/A   Clear
9:53 PM 10.0 °F -4.5 °F 3.0 °F 73% 30.52 in 10.0 mi East 11.5 mph - N/A   Clear
10:53 PM 3.0 °F - -2.0 °F 80% 30.52 in 9.0 mi Calm Calm - N/A   Clear
11:53 PM 3.9 °F -6.9 °F -0.0 °F 84% 30.48 in 7.0 mi ENE 5.8 mph - N/A   Clear